If you wish to contribute or participate in the discussions about articles you are invited to join SKYbrary as a registered user

 Actions

Rouen Airport

From SKYbrary Wiki

LFOP
Airport
ICAO: LFOP – IATA: URO
Summary
Name Rouen Airport
Region Europe
Territory France FR.gif
Location , Haute-Normandie
Serving Rouen
Elevation 156.058 m
512 ft
512 ft156.058 m
Type medium airport
Coordinates 49° 23' 3.02" N, 1° 10' 29.28" E
Runways
Designator Length Width Surface ROPS
4/22 1700 m5,577.428 ft
45 m147.638 ft
ASP yes/yes
5/23 0 m0 ft
0 m0 ft
UNK /


METAR
Observation LFOP 240130Z AUTO 12004KT 1900 0750 R22/2800D BCFG BKN002 BKN240 11/11 Q1006
Station Rouen
Date/Time 24 October 2019 01:30:00
Wind direction 120°
Wind speed 04 kts
Lowest cloud amount broken clouds
Temperature 11°C
Dew point 11°C
Humidity 100%
QNH 1006 hPa
Weather condition n/a